星链-2471 (STARLINK-2471 )

导读 | 豆包AI

STARLINK-2471是美国SpaceX星链项目低轨通信卫星,属于星链V1.0平台,是第24批次发射组网卫星之一。卫星于美国东部时间2021年4月7日成功发射,目前处于在轨运行状态。运行在近地轨道,轨道倾角53.156°,近地点约477公里,远地点约479公里,每94分钟绕地球一圈。旨在为全球提供高速低延迟互联网服务,增强了星链网络的覆盖稳定性。

基本信息
目录编号:
48129
目录名称:
STARLINK-2471
国际标识:
2021-027AP
轨道中心:
EARTH
卫星名称:
星链-2471
卫星全名:
星链-2471 (STARLINK-2471 )
卫星状态:
在轨 (已飞行1802 天)
发射日期:
2021-04-07 UTC
国别 :
美国 (US)
星等 :
--
轨道信息
数据来源 国际轨道数据
星历时间: 2026-03-14T05:31:34+0800
17小时前
查看轨道信息
半长轴: 6853.34km
偏心率: 0.0001055
轨道倾角: 53.161°
近地点辐角 88.463°
升交点赤经 146.029°
平近点角 271.649°
近地点: 474.479km
远地点: 475.927km
周期: 94.105分钟
每日圈数: 15.302042
详细信息
固有亮度:
5
最大亮度:
2.5
卫星平台:
Starlink V1.0
覆盖范围:
全球
运营商:
太空探索技术公司
运营商所在国:
美国
制造商(研发单位):
太空探索技术公司
制造商所在国:
美国
使用方式:
暂无
卫星简介
星链(Starlink)计划是由太空探索技术公司(SpaceX)提出的一个巨型低轨卫星互联网星座项目,计划在2019年至2024年间在太空搭建由约1.2万颗卫星组成的“星链”网络,其中1584颗将部署在地球上空550千米处的近地轨道,并从2020年开始工作。该卫星仍在工作。
2D轨道图
3D轨道图
轨道高度分析图
轨道倾角分析图
轨道综合分析图
查看轨道综合分析图